Location: Observatory
(52.1446°N, 0.4624°W)
Time: 06:27:13
(UTC+00:00)

ISS - Pass Details

Date: 08 December 2017
Orbit: 403 x 407 km, 51.6° (Epoch: 12 December)

Event Time Altitude Azimuth Distance (km) Brightness Sun altitude
Rises 16:31:16 0° 257° (WSW) 2,328 1.8 -6.1°
Reaches altitude 10° 16:33:22 10° 255° (WSW) 1,468 0.6 -6.4°
Maximum altitude 16:36:39 75° 171° (S) 427 -3.7 -6.8°
Drops below altitude 10° 16:39:56 10° 85° (E) 1,469 -1.6 -7.3°
Enters shadow 16:40:18 - 85° (E) 1,618 -1.4 -7.3°
